Other Public Products
Issued by NWS Charleston, SC

Current Version | Previous Version | Graphics & Text | Print | Product List | Glossary On
Versions: 1 2 3 4 5 6 7 8 9 10 11 12 13 14 15 16 17 18 19 20 21 22 23 24 25 26 27 28 29 30 31 32 33 34 35 36 37 38 39 40 41 42 43 44 45 46 47 48 49 50
000 FPUS82 KCHS 241212 OPUCHS TEST...KCHS/KSAV Gateway Observations...TEST National Weather Service Charleston SC 800 AM EDT MON JUL 24 2017 NOTE: "fair" indicates few or no clouds below 12,000 feet with no significant weather and/or obstructions to visibility. SCZ050-WAZ558-NCZ071-TXZ119-213-PAZ071-DCZ001-FLZ074-172-MI076- NYZ176-178-MAZ016-IL014-TNZ027-NJZ106-GAZ044-MD014-241300- ...Gateway Observations for Charleston International... CITY SKY/WX TMP DP RH WIND PRES REMARKS Chas Airport CLOUDY 78 73 84 SW10 29.97R 6HR MIN TEMP: 78; 6HR MAX TEMP: 79; Seattle CLEAR 58 51 78 N5 30.04S 6HR MIN TEMP: 58; 6HR MAX TEMP: 65; Charlotte CLOUDY 74 69 85 SW5 29.94R 6HR MIN TEMP: 72; 6HR MAX TEMP: 74; Dallas DFW CLOUDY 75 74 96 SE8 29.91R 6HR MIN TEMP: 73; 6HR MAX TEMP: 77; 6HR PCP: 0.58; Dallas Love CLOUDY 75 72 90 SE7 29.91R 6HR MIN TEMP: 74; 6HR MAX TEMP: 76; 6HR PCP: 0.29; Philladelphia CLOUDY 73 70 90 S6 29.76R 6HR MIN TEMP: 71; 6HR MAX TEMP: 73; 6HR PCP: 1.36; Wash National CLOUDY 78 73 84 W6 29.80R 6HR MIN TEMP: 74; 6HR MAX TEMP: 78; 6HR PCP: TRACE; Baltimore PTSUNNY 75 74 96 W6 29.78R 6HR MIN TEMP: 71; 6HR MAX TEMP: 75; Miami PTSUNNY 83 74 74 CALM 30.07R 6HR MIN TEMP: 81; 6HR MAX TEMP: 84; 6HR PCP: TRACE; Detroit CLOUDY 68 62 81 N9 29.89R 6HR MIN TEMP: 65; 6HR MAX TEMP: 69; Newark CLOUDY 71 68 90 NE9 29.75F 6HR MIN TEMP: 70; 6HR MAX TEMP: 74; 6HR PCP: 0.32; Laguardia LGT RAIN 70 68 93 E16 29.75F 6HR MIN TEMP: 69; 6HR MAX TEMP: 73; 6HR PCP: 0.45; J F K CLOUDY 71 70 96 E10 29.76F 6HR MIN TEMP: 70; 6HR MAX TEMP: 74; 6HR PCP: 0.41; Boston Logan LGT RAIN 64 58 80 E14 29.94S 6HR MIN TEMP: 63; 6HR MAX TEMP: 65; 6HR PCP: 0.02; Ft. Lauderdale MOSUNNY 81 74 79 SE8 30.06R 6HR MIN TEMP: 79; 6HR MAX TEMP: 84; 6HR PCP: TRACE; Chicago O`Hare MOSUNNY 67 60 78 N10 29.98R 6HR MIN TEMP: 66; 6HR MAX TEMP: 70; Chicago Midway MOSUNNY 69 60 73 N14 29.97R 6HR MIN TEMP: 68; 6HR MAX TEMP: 71; Houston Bush MOCLDY 81 76 84 SW6 29.95R 6HR MIN TEMP: 80; 6HR MAX TEMP: 83; Houston Hobby MOCLDY 81 76 84 CALM 29.95R 6HR MIN TEMP: 80; 6HR MAX TEMP: 83; Nashville PTSUNNY 72 69 90 CALM 29.96R 6HR MIN TEMP: 70; 6HR MAX TEMP: 74; Atlanta CLOUDY 75 73 93 W6 29.98S 6HR MIN TEMP: 75; 6HR MAX TEMP: 79; 6HR PCP: TRACE; $$ GAZ044-118-TXZ119-213-NCZ071-DCZ001-MDZ014-506-PAZ021-071-NJZ106- NYZ176-178-MAZ106-OHZ011-021-055-MIZ076-KYZ091-ILZ014-INZ047- MNZ060-ONZ431-241300- ...Gateway Observations for Savannah International... CITY SKY/WX TMP DP RH WIND PRES REMARKS Savannah Arpt PTSUNNY 78 74 87 SW10 29.98R Atlanta CLOUDY 75 73 93 W6 29.98S 6HR MIN TEMP: 75; 6HR MAX TEMP: 79; 6HR PCP: TRACE; Charlotte CLOUDY 74 69 85 SW5 29.94R 6HR MIN TEMP: 72; 6HR MAX TEMP: 74; Dallas DFW CLOUDY 75 74 96 SE8 29.91R 6HR MIN TEMP: 73; 6HR MAX TEMP: 77; 6HR PCP: 0.58; Houston Bush MOCLDY 81 76 84 SW6 29.95R 6HR MIN TEMP: 80; 6HR MAX TEMP: 83; Wash National CLOUDY 78 73 84 W6 29.80R 6HR MIN TEMP: 74; 6HR MAX TEMP: 78; 6HR PCP: TRACE; Wash Dulles CLOUDY 76 71 85 W3 29.81R 6HR MIN TEMP: 73; 6HR MAX TEMP: 76; Baltimore PTSUNNY 75 74 96 W6 29.78R 6HR MIN TEMP: 71; 6HR MAX TEMP: 75; Philadelphia CLOUDY 73 70 90 S6 29.76R 6HR MIN TEMP: 71; 6HR MAX TEMP: 73; 6HR PCP: 1.36; Newark CLOUDY 71 68 90 NE9 29.75F 6HR MIN TEMP: 70; 6HR MAX TEMP: 74; 6HR PCP: 0.32; Laguardia LGT RAIN 70 68 93 E16 29.75F 6HR MIN TEMP: 69; 6HR MAX TEMP: 73; 6HR PCP: 0.45; J F K CLOUDY 71 70 96 E10 29.76F 6HR MIN TEMP: 70; 6HR MAX TEMP: 74; 6HR PCP: 0.41; Boston LGT RAIN 64 58 80 E14 29.94S 6HR MIN TEMP: 63; 6HR MAX TEMP: 65; 6HR PCP: 0.02; Pittsburg PTSUNNY 68 67 96 W5 29.86R 6HR MIN TEMP: 67; 6HR MAX TEMP: 69; Akron PTSUNNY 68 65 90 SW6 29.87R 6HR MIN TEMP: 65; 6HR MAX TEMP: 68; Cleveland PTSUNNY 73 66 78 N9 29.87R 6HR MIN TEMP: 68; 6HR MAX TEMP: 73; Cincinnati MOSUNNY 72 71 97 W7 29.91R 6HR MIN TEMP: 67; 6HR MAX TEMP: 72; Columbus MOSUNNY 68 68 100 S3 29.87R Detroit CLOUDY 68 62 81 N9 29.89R 6HR MIN TEMP: 65; 6HR MAX TEMP: 69; Chicago O`Hare MOSUNNY 67 60 78 N10 29.98R 6HR MIN TEMP: 66; 6HR MAX TEMP: 70; Minneapolis SUNNY 62 56 80 E6 30.06R 6HR MIN TEMP: 60; 6HR MAX TEMP: 64; Indianapolis MOSUNNY 69 65 86 CALM 29.93R 6HR MIN TEMP: 67; 6HR MAX TEMP: 72; Toronto Canada PTSUNNY 68 57 68 VRB2 29.75R $$

USA.gov is the U.S. government's official web portal to all federal, state and local government web resources and services.